• en France
  • Liste des pays
  • À 7 jours
  • Température de l'eau
  • Carte satellitaire
  • Carte météo
  • Widgets météo
  • user-avatar
    Se connecter

    Météo par heure à Dryja

    Ce jour, 19 Août, Dimanche

    Heure Température Précipitation Vent Pression Humidité
    00:00 +22°C° 0 mm 1 m/s 755 mmHg 71%
    01:00 +22°C° 0 mm 1 m/s 755 mmHg 72%
    02:00 +22°C° 0 mm 1 m/s 755 mmHg 72%
    03:00 +19°C° 0 mm 0 m/s 755 mmHg 73%
    04:00 +19°C° 0 mm 0 m/s 755 mmHg 73%
    05:00 +20°C° 0 mm 0 m/s 755 mmHg 71%
    06:00 +21°C° 0 mm 0 m/s 755 mmHg 68%
    07:00 +24°C° 0 mm 1 m/s 755 mmHg 65%
    08:00 +25°C° 0 mm 1 m/s 755 mmHg 61%
    09:00 +27°C° 0 mm 1 m/s 755 mmHg 57%
    10:00 +28°C° 0 mm 1 m/s 755 mmHg 53%
    11:00 +28°C° 0 mm 2 m/s 755 mmHg 50%
    12:00 +29°C° 0 mm 2 m/s 755 mmHg 46%
    13:00 +30°C° 0 mm 2 m/s 754 mmHg 43%
    14:00 +30°C° 0 mm 2 m/s 754 mmHg 41%
    15:00 +30°C° 0 mm 2 m/s 754 mmHg 40%
    16:00 +30°C° 0 mm 2 m/s 754 mmHg 38%
    17:00 +29°C° 0 mm 1 m/s 754 mmHg 41%
    18:00 +27°C° 0 mm 1 m/s 753 mmHg 45%
    19:00 +26°C° 0 mm 1 m/s 753 mmHg 48%
    20:00 +25°C° 0 mm 1 m/s 753 mmHg 49%
    21:00 +24°C° 0 mm 1 m/s 753 mmHg 50%
    22:00 +23°C° 0 mm 1 m/s 753 mmHg 50%
    23:00 +23°C° 0 mm 1 m/s 753 mmHg 52%

    Demain, 20 Août, Lundi

    Heure Température Précipitation Vent Pression Humidité
    00:00 +23°C° 0 mm 1 m/s 753 mmHg 54%
    01:00 +21°C° 0 mm 2 m/s 753 mmHg 56%
    02:00 +21°C° 0 mm 2 m/s 752 mmHg 59%
    03:00 +21°C° 0 mm 2 m/s 752 mmHg 63%
    04:00 +21°C° 0 mm 2 m/s 752 mmHg 66%
    05:00 +22°C° 0 mm 3 m/s 752 mmHg 65%
    06:00 +24°C° 0 mm 3 m/s 752 mmHg 63%
    07:00 +25°C° 0 mm 3 m/s 752 mmHg 62%
    08:00 +26°C° 0 mm 4 m/s 752 mmHg 56%
    09:00 +28°C° 0 mm 4 m/s 752 mmHg 51%
    10:00 +30°C° 0 mm 4 m/s 752 mmHg 45%
    11:00 +30°C° 0 mm 5 m/s 751 mmHg 44%
    12:00 +30°C° 0 mm 5 m/s 751 mmHg 43%
    13:00 +32°C° 0 mm 5 m/s 751 mmHg 41%
    14:00 +30°C° 0 mm 5 m/s 750 mmHg 42%
    15:00 +30°C° 0 mm 6 m/s 750 mmHg 43%
    16:00 +30°C° 0 mm 6 m/s 750 mmHg 43%
    17:00 +28°C° 0 mm 5 m/s 750 mmHg 50%
    18:00 +26°C° 0 mm 5 m/s 750 mmHg 56%
    19:00 +25°C° 0 mm 4 m/s 751 mmHg 62%
    20:00 +23°C° 0 mm 4 m/s 751 mmHg 67%
    21:00 +22°C° 0 mm 4 m/s 752 mmHg 71%
    22:00 +21°C° 0 mm 4 m/s 752 mmHg 76%
    23:00 +20°C° 0 mm 3 m/s 752 mmHg 76%

    Après-demain, 21 Août, Mardi

    Heure Température Précipitation Vent Pression Humidité
    00:00 +19°C° 0 mm 3 m/s 753 mmHg 76%
    01:00 +18°C° 0 mm 3 m/s 753 mmHg 76%
    02:00 +17°C° 0 mm 3 m/s 753 mmHg 76%
    03:00 +16°C° 0 mm 3 m/s 753 mmHg 76%
    04:00 +14°C° 0 mm 3 m/s 754 mmHg 76%
    05:00 +16°C° 0 mm 3 m/s 754 mmHg 73%
    06:00 +17°C° 0 mm 4 m/s 755 mmHg 71%
    07:00 +17°C° 0 mm 4 m/s 755 mmHg 68%
    08:00 +19°C° 0 mm 4 m/s 755 mmHg 62%
    09:00 +20°C° 0 mm 4 m/s 755 mmHg 57%
    10:00 +21°C° 0 mm 4 m/s 756 mmHg 51%
    11:00 +22°C° 0 mm 4 m/s 756 mmHg 47%
    12:00 +23°C° 0 mm 4 m/s 756 mmHg 43%
    13:00 +25°C° 0 mm 4 m/s 755 mmHg 40%
    14:00 +25°C° 0 mm 4 m/s 755 mmHg 40%
    15:00 +25°C° 0 mm 4 m/s 755 mmHg 39%
    16:00 +25°C° 0 mm 4 m/s 755 mmHg 39%
    17:00 +24°C° 0 mm 3 m/s 755 mmHg 44%
    18:00 +21°C° 0 mm 2 m/s 756 mmHg 49%
    19:00 +20°C° 0 mm 2 m/s 756 mmHg 53%
    20:00 +19°C° 0 mm 2 m/s 756 mmHg 56%
    21:00 +18°C° 0 mm 2 m/s 756 mmHg 60%
    22:00 +18°C° 0 mm 1 m/s 757 mmHg 63%
    23:00 +17°C° 0 mm 2 m/s 757 mmHg 66%

    22 Août, Mercredi

    Heure Température Précipitation Vent Pression Humidité
    00:00 +16°C° 0 mm 2 m/s 757 mmHg 70%
    01:00 +16°C° 0 mm 2 m/s 757 mmHg 74%
    02:00 +15°C° 0 mm 2 m/s 757 mmHg 76%
    03:00 +15°C° 0 mm 2 m/s 757 mmHg 78%
    04:00 +15°C° 0 mm 2 m/s 757 mmHg 80%
    05:00 +16°C° 0 mm 2 m/s 757 mmHg 77%
    06:00 +17°C° 0 mm 2 m/s 757 mmHg 73%
    07:00 +18°C° 0 mm 2 m/s 757 mmHg 69%
    08:00 +20°C° 0 mm 3 m/s 757 mmHg 61%
    09:00 +22°C° 0 mm 3 m/s 757 mmHg 54%
    10:00 +25°C° 0 mm 3 m/s 757 mmHg 46%
    11:00 +26°C° 0 mm 3 m/s 756 mmHg 43%
    12:00 +26°C° 0 mm 3 m/s 756 mmHg 40%
    13:00 +27°C° 0 mm 3 m/s 755 mmHg 37%
    14:00 +27°C° 0 mm 3 m/s 755 mmHg 36%
    15:00 +28°C° 0 mm 3 m/s 755 mmHg 36%
    16:00 +28°C° 0 mm 3 m/s 754 mmHg 35%
    17:00 +26°C° 0 mm 3 m/s 754 mmHg 40%
    18:00 +25°C° 0 mm 2 m/s 754 mmHg 44%
    19:00 +23°C° 0 mm 2 m/s 754 mmHg 49%
    20:00 +21°C° 0 mm 2 m/s 754 mmHg 51%
    21:00 +20°C° 0 mm 3 m/s 754 mmHg 54%
    22:00 +20°C° 0 mm 3 m/s 754 mmHg 56%
    23:00 +19°C° 0 mm 3 m/s 754 mmHg 59%

    23 Août, Jeudi

    Heure Température Précipitation Vent Pression Humidité
    00:00 +19°C° 0 mm 3 m/s 754 mmHg 62%
    01:00 +18°C° 0 mm 3 m/s 753 mmHg 66%
    02:00 +18°C° 0 mm 3 m/s 753 mmHg 69%
    03:00 +17°C° 0 mm 3 m/s 753 mmHg 73%
    04:00 +17°C° 0 mm 3 m/s 753 mmHg 77%
    05:00 +18°C° 0 mm 3 m/s 753 mmHg 74%
    06:00 +19°C° 0 mm 3 m/s 753 mmHg 72%
    07:00 +20°C° 0 mm 3 m/s 753 mmHg 69%
    08:00 +22°C° 0 mm 3 m/s 753 mmHg 61%
    09:00 +25°C° 0 mm 3 m/s 752 mmHg 53%
    10:00 +27°C° 0 mm 3 m/s 752 mmHg 45%
    11:00 +28°C° 0 mm 3 m/s 752 mmHg 42%
    12:00 +29°C° 0 mm 2 m/s 752 mmHg 38%
    13:00 +30°C° 0 mm 2 m/s 751 mmHg 35%
    14:00 +30°C° 0 mm 2 m/s 751 mmHg 34%
    15:00 +30°C° 0 mm 1 m/s 751 mmHg 34%
    16:00 +31°C° 0 mm 1 m/s 750 mmHg 33%
    17:00 +29°C° 0 mm 1 m/s 750 mmHg 37%
    18:00 +27°C° 0 mm 2 m/s 750 mmHg 41%
    19:00 +26°C° 0 mm 2 m/s 750 mmHg 45%
    20:00 +25°C° 0 mm 2 m/s 750 mmHg 47%
    21:00 +24°C° 0 mm 2 m/s 750 mmHg 48%
    22:00 +22°C° 0 mm 3 m/s 750 mmHg 49%
    23:00 +22°C° 0 mm 3 m/s 750 mmHg 50%

    24 Août, Vendredi

    Heure Température Précipitation Vent Pression Humidité
    00:00 +21°C° 0 mm 3 m/s 749 mmHg 51%
    01:00 +21°C° 0 mm 3 m/s 749 mmHg 52%
    02:00 +21°C° 0 mm 3 m/s 749 mmHg 52%
    03:00 +20°C° 0 mm 3 m/s 748 mmHg 53%
    04:00 +20°C° 0 mm 3 m/s 748 mmHg 54%
    05:00 +21°C° 0 mm 3 m/s 748 mmHg 53%
    06:00 +22°C° 0 mm 3 m/s 747 mmHg 53%
    07:00 +24°C° 0 mm 3 m/s 747 mmHg 52%
    08:00 +26°C° 0 mm 3 m/s 747 mmHg 48%
    09:00 +28°C° 0 mm 3 m/s 747 mmHg 44%
    10:00 +32°C° 0 mm 4 m/s 746 mmHg 41%
    11:00 +33°C° 0 mm 4 m/s 746 mmHg 38%
    12:00 +34°C° 0 mm 4 m/s 746 mmHg 35%
    13:00 +34°C° 0 mm 4 m/s 745 mmHg 33%
    14:00 +34°C° 0 mm 4 m/s 745 mmHg 35%
    15:00 +34°C° 0 mm 3 m/s 745 mmHg 36%
    16:00 +33°C° 0 mm 3 m/s 744 mmHg 38%
    17:00 +31°C° 0,4 mm 3 m/s 744 mmHg 45%
    18:00 +29°C° 0,4 mm 3 m/s 744 mmHg 51%
    19:00 +27°C° 0,4 mm 2 m/s 744 mmHg 58%
    20:00 +26°C° 1,2 mm 2 m/s 744 mmHg 64%
    21:00 +25°C° 1,2 mm 2 m/s 744 mmHg 70%
    22:00 +23°C° 1,2 mm 2 m/s 745 mmHg 76%
    23:00 +23°C° 0,5 mm 2 m/s 745 mmHg 80%
    Voir plus